Location: Unspecified
(40.7945°N, 0.0000°E)
Time: 20:26:07
(UTC+00:00)

Explorer 7 - Pass Details

Date: 19 June 2021
Orbit: 484 x 676 km, 50.3° (Epoch: 30 July)

Event Time Altitude Azimuth Distance (km) Brightness Sun altitude
Rises 03:11:10 0° 303° (WNW) 2,924 10.4 -12.1°
Reaches altitude 10° 03:13:33 10° 302° (WNW) 1,984 9.5 -11.8°
Maximum altitude 03:18:06 83° 217° (SW) 599 6.9 -11.2°
Drops below altitude 10° 03:22:20 10° 128° (SE) 1,850 9.6 -10.6°
Sets 03:24:30 0° 128° (SE) 2,710 10.5 -10.3°
